Location: Elbart
(49.6135°N, 11.9134°E)
Time: 18:46:59
(UTC+00:00)

STARLINK-1236 - Pass Details

Date: 09 April 2020
Orbit: 549 x 550 km, 53.0° (Epoch: 25 May)

Event Time Altitude Azimuth Distance (km) Brightness Sun altitude
Rises 19:19:12 0° 292° (WNW) 2,730 9.1 -13.2°
Reaches altitude 10° 19:21:27 10° 292° (WNW) 1,835 7.7 -13.5°
Maximum altitude 19:25:37 87° 208° (SSW) 559 3.6 -14.1°
Enters shadow 19:27:58 25° 116° (ESE) 1,128 4.6 -14.4°
